This is the latest recevied weather packets stored in our database for station/object K5WNG. If no packets are shown the sender has not sent any weather packets the latest 10 day(s).
| Time | Temp. | Humidity | Pressure | Rain* | Wind** | Luminosity | Snow |
|---|---|---|---|---|---|---|---|
| 1777731325 | 13.89° C | 80% | 1022.2 hPa | 0 mm | - | 70 W/m² | - |
| 1777731025 | 13.89° C | 81% | 1022.1 hPa | 0 mm | - | 83 W/m² | - |
| 1777730728 | 13.33° C | 82% | 1022 hPa | 0 mm | - | 65 W/m² | - |
| 1777730425 | 13.33° C | 83% | 1022 hPa | 0 mm | - | 106 W/m² | - |
| 1777730125 | 13.33° C | 83% | 1021.9 hPa | 0 mm | - | 111 W/m² | - |
| 1777729825 | 13.33° C | 84% | 1021.9 hPa | 0 mm | - | 122 W/m² | - |
| 1777729530 | 12.78° C | 85% | 1021.9 hPa | 0 mm | - | 152 W/m² | - |
| 1777729228 | 12.22° C | 86% | 1021.8 hPa | 0 mm | - | 281 W/m² | - |
| 1777728930 | 11.67° C | 87% | 1021.7 hPa | 0 mm | - | 275 W/m² | - |
| 1777728626 | 11.11° C | 91% | 1021.6 hPa | 0 mm | - | 150 W/m² | - |
| 1777728326 | 11.11° C | 92% | 1021.6 hPa | 0 mm | - | 52 W/m² | - |
| 1777728029 | 10.56° C | 93% | 1021.5 hPa | 0 mm | - | 50 W/m² | - |
| 1777727726 | 10.56° C | 94% | 1021.5 hPa | 0 mm | - | 48 W/m² | - |
| 1777727426 | 10° C | 94% | 1021.4 hPa | 0 mm | - | 46 W/m² | - |
| 1777727126 | 10° C | 96% | 1021.4 hPa | 0 mm | - | 44 W/m² | - |
| 1777726826 | 9.44° C | 98% | 1021.4 hPa | 0 mm | - | 42 W/m² | - |
| 1777726529 | 9.44° C | 99% | 1021.3 hPa | 0 mm | - | 40 W/m² | - |
| 1777726226 | 8.89° C | 99% | 1021.2 hPa | 0 mm | - | 38 W/m² | - |
| 1777725926 | 8.89° C | 99% | 1021.1 hPa | 0 mm | - | 36 W/m² | - |
| 1777725626 | 8.33° C | 99% | 1021 hPa | 0 mm | - | 33 W/m² | - |
| 1777725327 | 8.33° C | 99% | 1020.9 hPa | 0 mm | - | 31 W/m² | - |
| 1777725026 | 8.33° C | 99% | 1020.9 hPa | 0 mm | - | 28 W/m² | - |
| 1777724727 | 8.33° C | 99% | 1020.8 hPa | 0 mm | - | 26 W/m² | - |
| 1777724430 | 8.33° C | 99% | 1020.7 hPa | 0 mm | - | 23 W/m² | - |
| 1777724127 | 7.78° C | 99% | 1020.6 hPa | 0 mm | - | 20 W/m² | - |
* Rain latest hour (hover to see other rain measurements)
** Current wind speed in m/s (hover to see current wind gust speed)